Regional Weather Roundup
Issued by NWS

Home | Current Version | Previous Version | Text Only | Print | Product List | Glossary On
Versions: 1 2 3 4 5 6 7 8 9 10 11 12 13 14 15 16 17 18 19 20 21 22 23 24 25 26 27 28 29 30 31 32 33 34 35 36 37 38 39 40 41 42 43 44 45 46 47 48 49 50
000
ASUS43 KFSD 062210
RWRSD

WEATHER ROUNDUP FOR SOUTH DAKOTA
NATIONAL WEATHER SERVICE SIOUX FALLS SD
400 PM CST TUE DEC 06 2016

NOTE: "FAIR" INDICATES FEW OR NO CLOUDS BELOW 12,000 FEET WITH NO
SIGNIFICANT WEATHER AND/OR OBSTRUCTIONS TO VISIBILITY.


SDZ001>005-009-010-012>017-062300-
NORTHWEST AND NORTH CENTRAL SOUTH DAKOTA

CITY           SKY/WX    TMP DP  RH WIND       PRES   REMARKS
BUFFALO          N/A      7  -2  66 NW26      29.93R WCI -15
FAITH            N/A      7   1  76 NW26      29.98R WCI -15
MOBRIDGE       CLOUDY    11   1  64 NW30G44   29.91R WCI -11
$$

SDZ012>016-024>037-041>051-057-063-072>074-062300-
SOUTHWEST AND SOUTH CENTRAL SOUTH DAKOTA

CITY           SKY/WX    TMP DP  RH WIND       PRES   REMARKS
RAPID CTY ARPT CLEAR     17   2  51 N20G26    29.97R WCI   1
PIERRE         MIX PCPN  14   5  67 W25       30.01R WCI  -5
CUSTER         SUNNY     14  -5  42 W9        29.80R WCI   2
PHILIP         CLEAR     15   3  59 NW23G30   30.04R WCI  -3
PINE RIDGE     SUNNY     19   7  59 NW8       29.97R WCI   9
SPEARFISH      FAIR      10   0  61 NW17G25   29.95R WCI  -7
WINNER         FAIR      21   6  52 W17G28    30.00R WCI   7
$$

SDZ004>011-016>023-039-040-062300-
NORTHEAST SOUTH DAKOTA

CITY           SKY/WX    TMP DP  RH WIND       PRES   REMARKS
ABERDEEN       CLOUDY    14   3  61 W26G43    29.86R WCI  -6
WATERTOWN      LGT SNOW  13   7  77 W23G35    29.80R WCI  -6
BROOKINGS      LGT SNOW  14   9  79 W30         N/A  WCI  -7
SISSETON         N/A     17  10  74 NW30G46   29.72R WCI  -3
$$

SDZ017-020-022-023-036>040-048>070-062300-
SOUTHEAST SOUTH DAKOTA

CITY           SKY/WX    TMP DP  RH WIND       PRES   REMARKS
SIOUX FALLS    PTCLDY    21  11  65 W22G33    29.90R WCI   5
HURON          MOCLDY    15   6  67 W23G38    29.95R WCI  -3
CHAMBERLAIN    CLEAR     18   7  61 NW23G30   30.00R WCI   1
MITCHELL       PTCLDY    20   9  62 W28G33    29.97R WCI   2
YANKTON        CLEAR    N/A N/A N/A W31G38    29.95S
$$

ABBREVIATIONS USED IN REMARKS
   TC - TEMPERATURE IN CELSIUS
  WCI - WIND CHILL INDEX
   HX - HEAT INDEX
  VSB - VISIBILITY





USA.gov is the U.S. government's official web portal to all federal, state and local government web resources and services.